User: anonymous   Login
Location: Mentone
(34.5413°N, 85.5351°W)
Time: 22:35:07
(UTC-06:00)
Language:

ADEOS Rocket - Orbit

View from above orbital plane
View from above orbital plane
View from above satellite
View from above satellite

Ground track
Ground track

The orbit data is extracted from the following two-line orbital elements,

1 24279U 96046C   16336.88143459  .00000037  00000-0  89048-4 0  9993
2 24279  98.7258 299.4801 0300972  71.7767 317.6015 13.47067530997682
Epoch (UTC): 01 December 2016 21:09:15
Eccentricity: 0.0300972
inclination: 98.7258°
perigee height: 858 km
apogee height: 1307 km
right ascension of ascending node: 299.4801°
argument of perigee: 71.7767°
revolutions per day: 13.47067530
mean anomaly at epoch: 317.6015°
orbit number at epoch: 99768

The dashed part of the orbit path shows where the satellite is in the earth's shadow,  

DLR